COSMOS 1275 DEB, 42203

Orbit data source: Space-Track

COSMOS 1275 DEB, 42203 is space debris in LEO originally from a launch on Thu, 04 Jun 1981 UTC launched from the Plesetsk Missile And Space Complex (PKMTR). Debris objects in space refer to the collection of defunct objects orbiting the Earth. Examples of debris include non-operational satellites, rocket bodies, and fragments generated from explosions, collisions, or faulty payload assembly.

Loading next visibility...
Identifier
42203, 1981-053TT
Orbit
LEO
Country
Flag of CISCIS
Related business
Manufacturer
Unknown
Mission
Spacecraft
Bus & Motor
Unknown
Mass
Unknown
Launch date (UTC)
1981-06-04 (45 years ago)
Launch vehicle
Unknown
Launch site
Plesetsk Missile And Space Complex (PKMTR)
Object type
Payload
Rocket body
Debris
Shape & HBR
Unknown shape, 0.1 m
Radar Cross Section
Small (<0.1 m²)

Expand to show TLE details & history
Last TLE update: 3 days ago

TLE from 3 days ago
0 COSMOS 1275 DEB
1 42203U 81053TT  26063.06199156  .00001975  00000-0  19339-2 0  9991
2 42203  82.9974 342.3498 0119601   5.3672  52.5764 13.75515252614002
Epoch: 2026-03-04T01:29Z
TLE epoch observation values (Epoch: 2026-03-04T01:29:16.070Z)
Latitude
58.43251°
Longitude
169.67143°
Altitude
936.886 km
Speed
7.415 km/s
True Right ascension
23h 35m 16s
True Declination
58° 16' 58"
Sunlit
Object was in daylight at epoch
Visualization orbit readout
Latitude
Unknown
Longitude
Unknown
Altitude
Unknown
Speed
Unknown
Apparent Right ascension
Unknown
Apparent Declination
Unknown
Sunlit
N/A
Visualization observer readout
Local Sidereal Time
07:05:27
Azimuth
Unknown
Elevation
Unknown
Doppler factor
Unknown
Orbital elements
Apogee altitude
1,064.95 km
Perigee altitude
889.014 km
Semi-major axis
7,355.119 km
Eccentricity
0.01196
Inclination
82.9974°
RAAN
342.3498°
Arg. of periapsis
5.3672°
True anomaly
53.67473°
Mean anomaly
52.5764°
Eccentric anomaly
53.12457°
Mean motion
3.44079 °/min
Orbital period
104.63 mins
BSTAR
0.0019339
Loading maneuver chart data...
Computing Atmospheric mass density...
Loading historical data...
Loading historical data...
Loading historical data...
Loading historical data...
Loading historical data...
Loading historical data...
Loading historical data...

Documentation

Showing up to 5 results
|